Flag for Paraguay Weather past 2 weeks in Asuncion, Paraguay

Now
73 °F

Sunny.


Feels Like: 76 °F
Forecast: 62 / 78 °F
Wind: 9 mph from Southeast

Location: Asuncion / Aeropuerto


UV Index: 5 (Moderate)

Visibility: 10 mi


Pressure: 30.07 "Hg

Humidity: 69%

Dew point: 63 °F

Location of AsuncionLocation

Historic Weather in Asuncion

°F

Asuncion temperature yesterday

Maximum temperature yesterday: 81 °F (at 1:00 PM)
Minimum temperature yesterday: 70 °F (at 4:00 AM)
Average temperature yesterday: 74 °F

Past Weeks' High & Low Weather Summary

 TemperatureHumidityPressure
High95 °F (Apr 8, 1:00 PM)100% (Apr 9, 10:00 AM)30.27 "Hg (Apr 9, 10:00 AM)
Low50 °F (Apr 14, 6:00 AM)34% (Apr 15, 2:00 PM)29.65 "Hg (Apr 8, 3:00 PM)
Average72 °F83%29.92 "Hg
* Reported Apr 8 8:30 AM — Apr 23 8:00 AM, Asuncion, Weather by CustomWeather, © 2014

Note: Actual official high and low records may vary slightly from our data, if they occured in-between our weather recording intervals... More about our weather records

Advertising

Historic Weather Conditions — Data for Previous 24 hours

 ConditionsComfort  
Time TempWeatherWind HumidityBarometerVisibility
8:00 AM
Apr 23
68 °FSunny.5 mph83%30.07 "Hg10 mi
7:30 AM66 °FSunny.3 mph88%30.07 "Hg10 mi
7:00 AM64 °FSunny.No wind94%30.04 "Hg10 mi
6:00 AM63 °FSunny.6 mph94%30.04 "Hg10 mi
5:00 AM64 °FClear.6 mph94%30.01 "Hg10 mi
4:00 AM64 °FClear.3 mph94%30.01 "Hg10 mi
3:00 AM66 °FClear.5 mph94%30.01 "Hg10 mi
2:00 AM66 °FClear.3 mph94%30.01 "Hg10 mi
1:00 AM68 °FClear.3 mph88%30.01 "Hg10 mi
12:00 AM68 °FClear.6 mph88%30.01 "Hg10 mi
11:00 PM
Apr 22
70 °FClear.7 mph88%30.01 "Hg10 mi
10:00 PM70 °FClear.10 mph88%29.98 "Hg10 mi
9:00 PM70 °FClear.8 mph88%29.98 "Hg10 mi
8:00 PM72 °FClear.6 mph83%29.98 "Hg10 mi
7:00 PM73 °FClear.6 mph83%29.95 "Hg10 mi
6:00 PM73 °FPassing clouds.9 mph83%29.95 "HgN/A
5:00 PM77 °FPassing clouds.10 mph74%29.92 "HgN/A
4:00 PM79 °FBroken clouds.9 mph70%29.92 "HgN/A
3:00 PM79 °FBroken clouds.10 mph70%29.92 "HgN/A
2:00 PM79 °FBroken clouds.8 mph70%29.95 "HgN/A
1:00 PM81 °FBroken clouds.5 mph66%29.95 "HgN/A
12:00 PM79 °FBroken clouds.6 mph70%29.98 "HgN/A
11:00 AM77 °FBroken clouds.6 mph74%30.01 "HgN/A
10:00 AM77 °FBroken clouds.7 mph74%30.01 "HgN/A
9:30 AM75 °FPartly sunny.6 mph78%30.01 "HgN/A
9:00 AM75 °FBroken clouds.3 mph83%30.01 "HgN/A
Weather by CustomWeather, © 2014

See weather overview